Regional Weather Roundup
Issued by NWS

Home | Current Version | Previous Version | Graphics & Text | Print | Product List | Glossary On
Versions: 1 2 3 4 5 6 7 8 9 10 11 12 13 14 15 16 17 18 19 20 21 22 23 24 25 26 27 28 29 30 31 32 33 34 35 36 37 38 39 40 41 42 43 44 45 46 47 48 49 50
000
ASUS44 KMEG 252010
RWRTN
TENNESSEE HOURLY STATE WEATHER ROUNDUP
NATIONAL WEATHER SERVICE MEMPHIS TN
300 PM CDT FRI JUL 25 2014

TNZ002-004-019-021-049-052-054-088>092-252100-
WEST TENNESSEE

CITY           SKY/WX    TMP DP  RH WIND       PRES   REMARKS
MEMPHIS INTL   MOSUNNY   86  61  42 VRB6      30.02F
NWS MEMPHIS      N/A     85 N/A N/A MISG        N/A
JACKSON        MOSUNNY   83  61  47 CALM      30.02F
DYERSBURG      MOSUNNY   82  57  42 CALM      30.02F
UNION CITY     SUNNY     81  63  54 W5        30.03R
PARIS          MOSUNNY   81  59  47 W3        30.03F
LEXINGTON      PTSUNNY   82  64  54 VRB3      30.02F
SAVANNAH       SUNNY     84  64  51 VRB3      30.04R
$$

TNZ008-025-027-028-033-062-065-066-252100-
NORTH MIDDLE TENNESSEE

CITY           SKY/WX    TMP DP  RH WIND       PRES   REMARKS
NASHVILLE      MOSUNNY   85  55  35 CALM      30.03F
DICKSON        SUNNY     82  59  44 CALM      30.04F
PORTLAND       MOSUNNY   82  57  42 CALM      30.03F
CLARKSVILLE    MOSUNNY   84  56  38 VRB5      30.02F
LEBANON        SUNNY     83  53  35 CALM      30.02F
SMYRNA         SUNNY     89  59  36 NE6       30.04F
MURFREESBORO   SUNNY     83  60  45 CALM      30.04
COOKEVILLE     SUNNY     81  63  54 N53G116   30.07S SQUALL
LIVINGSTON       N/A     78  60  53 VRB6      30.08R
GALLATIN       SUNNY     85  57  38 VRB6      30.04F
CROSSVILLE     MOSUNNY   78  54  43 W8        30.10R
$$

TNZ061-075-076-078-094-096-097-252100-
SOUTH MIDDLE TENNESSEE

CITY           SKY/WX    TMP DP  RH WIND       PRES   REMARKS
LEWISBURG      MOSUNNY   84  60  44 NW6       30.04S
FAYETTEVILLE   PTSUNNY   82  63  51 VRB6      30.04F
TULLAHOMA      PTSUNNY   82  57  42 NW5       30.07S
WINCHESTER     SUNNY     84  55  37 NW7       30.05S
MCMINNVILLE    MOSUNNY   81  63  54 NW5       30.07S
COLUMBIA       SUNNY     84  63  48 CALM      30.03S
SHELBYVILLE    MOSUNNY   82  63  51 VRB3      30.06S
$$

TNZ017-018-042-046-047-252100-
NORTHEAST TENNESSEE

CITY           SKY/WX    TMP DP  RH WIND       PRES   REMARKS
TRI CITIES     MOSUNNY   83  59  44 W7        30.04F
ELIZABETHTON   PTCLDY    81  63  54 VRB7      30.04S
$$

TNZ012-013-036-069-073-074-252100-
CENTRAL EAST TENNESSEE

CITY           SKY/WX    TMP DP  RH WIND       PRES   REMARKS
KNOXVILLE      MOSUNNY   82  63  52 W8        30.03R
OAK RIDGE      SUNNY     84  57  39 VRB3      30.04S
GATLINBURG     PTCLDY    81  64  57 VRB3      30.02S
MORRISTOWN     CLEAR     81  64  57 W8        30.05S
$$

TNZ083-085-099-252100-
SOUTHEAST TENNESSEE

CITY           SKY/WX    TMP DP  RH WIND       PRES   REMARKS
CHATTANOOGA    PTSUNNY   86  60  41 W9        30.02R
$$

SKY/WX REPORTED AS FAIR MEANS FEW OR NO CLOUDS BELOW
12 THOUSAND FEET.



USA.gov is the U.S. government's official web portal to all federal, state and local government web resources and services.